sat.trackr.live / text

‹ back to catalog

ONEWEB-0382

NORAD 49308 · 2021-090AF

PAYLOAD ACTIVE UNKNOWN

§ Identity

Operator
Country
UK
Launch date
2021-10-14
Launch site
VOSTO
Launch vehicle
Mass (kg)
RCS (m²)

Purposes: comms

External: N2YO · Heavens-Above · Gunter

§ Orbital elements

Epoch: 2026-05-25T02:46:11.024832Z

Period
109.03 min
Inclination
87.9175°
Eccentricity
0.0002197
Mean motion
13.20771387 rev/d
Perigee alt
1,180.1 km
Apogee alt
1,183.4 km
Semi-major
7,559.9 km
B*
-7.7747e-5
RAAN
279.0347°
Arg perigee
95.3461°
Mean anomaly
264.7923°
Rev number
22,677

§ Raw data

ONEWEB-03821 49308U 21090AF  26145.11540538 -.00000019  00000+0 -77747-4 0  99982 49308  87.9175 279.0347 0002197  95.3461 264.7923 13.20771387226778

JSON: /api/v1/satellites/49308 · /tle

For live sub-satellite position, see the globe view (requires WebGL).

§ Visibility from observer

Set your observer location to see the next 7 days of passes ≥ 10°. The values pass through the URL so the page stays shareable.

No JS? Fill the form by hand. The geolocation button needs JavaScript.